This is the latest recevied weather packets stored in our database for station/object F1ZVN-13. If no packets are shown the sender has not sent any weather packets the latest 10 day(s).
| Time | Temp. | Humidity | Pressure | Rain* | Wind** | Luminosity | Snow |
|---|---|---|---|---|---|---|---|
| 1778306390 | 4.44° C | 56% | 1004.6 hPa | 0 mm | 0 m/s | - | - |
| 1778306268 | 4.44° C | 61% | 1004.5 hPa | 0 mm | 0 m/s | - | - |
| 1778306155 | 4.44° C | 61% | 1004.5 hPa | 0 mm | 0 m/s | - | - |
| 1778306025 | 4.44° C | 60% | 1004.5 hPa | 0 mm | 0 m/s | - | - |
| 1778305905 | 4.44° C | 59% | 1004.5 hPa | 0 mm | 0 m/s | - | - |
| 1778305783 | 3.89° C | 64% | 1004.5 hPa | 0 mm | 0 m/s | - | - |
| 1778305669 | 3.89° C | 68% | 1004.5 hPa | 0 mm | 0 m/s | - | - |
| 1778305540 | 3.89° C | 68% | 1004.5 hPa | 0 mm | 0 m/s | - | - |
| 1778305420 | 3.89° C | 69% | 1004.5 hPa | 0 mm | 0 m/s | - | - |
| 1778305303 | 3.89° C | 69% | 1004.5 hPa | 0 mm | 0 m/s | - | - |
| 1778305179 | 3.89° C | 71% | 1004.5 hPa | 0 mm | 0 m/s | - | - |
| 1778305056 | 3.33° C | 71% | 1004.5 hPa | 0 mm | 0 m/s | - | - |
| 1778304937 | 3.33° C | 72% | 1004.6 hPa | 0 mm | 0 m/s | - | - |
| 1778304815 | 3.33° C | 72% | 1004.6 hPa | 0 mm | 0 m/s | - | - |
| 1778304692 | 3.33° C | 73% | 1004.5 hPa | 0 mm | 0 m/s | - | - |
| 1778304570 | 3.33° C | 73% | 1004.6 hPa | 0 mm | 0 m/s | - | - |
| 1778304455 | 3.33° C | 75% | 1004.5 hPa | 0 mm | 0 m/s | - | - |
| 1778304327 | 3.33° C | 76% | 1004.3 hPa | 0 mm | 0 m/s | - | - |
| 1778303965 | 3.33° C | 76% | 1004.6 hPa | 0 mm | 0 m/s | - | - |
| 1778303842 | 3.33° C | 76% | 1004.6 hPa | 0 mm | 0 m/s | - | - |
| 1778303722 | 3.33° C | 74% | 1004.6 hPa | 0 mm | 0 m/s | - | - |
| 1778303603 | 3.33° C | 74% | 1004.6 hPa | 0 mm | 0 m/s | - | - |
| 1778303482 | 3.33° C | 75% | 1004.5 hPa | 0 mm | 0 m/s | - | - |
| 1778303247 | 3.33° C | 76% | 1004.7 hPa | 0 mm | 0 m/s | - | - |
| 1778303152 | 3.33° C | 76% | 1004.7 hPa | 0 mm | 0 m/s | - | - |
* Rain latest hour (hover to see other rain measurements)
** Current wind speed in m/s (hover to see current wind gust speed)